[Iaude] MPEC H43: 2024 HT [a=0.80,e=0.37,i=9.4,H=25.3]

mpec at cfa.harvard.edu mpec at cfa.harvard.edu
Sat Apr 20 00:27:56 EDT 2024


M.P.E.C. 2024-H43                                Issued 2024 April 20, 04:26 UT

     The Minor Planet Electronic Circulars contain information on unusual
         minor planets, routine data on comets and natural satellites,
         and occasional editorial announcements.  They are published
    on behalf of Division F of the International Astronomical Union by the
          Minor Planet Center, Smithsonian Astrophysical Observatory,
                          Cambridge, MA 02138, U.S.A.
			  
             Prepared using the Tamkin Foundation Computer Network

                              MPC at CFA.HARVARD.EDU
            URL https://www.minorplanetcenter.net/    ISSN 1523-6714

                                    2024 HT                                     


Observations:
     K24H00T* C2024 04 18.57208015 30 53.113-06 42 40.64         20.45wXEH043F52
     K24H00T  C2024 04 18.58466015 30 48.582-06 40 17.42         20.67wXEH043F52
     K24H00T  C2024 04 18.59714815 30 44.071-06 37 54.43         20.77wXEH043F52
     K24H00T KC2024 04 19.08816915 28 08.71 -05 02 24.9          20.5 GXEH043I93
     K24H00T KC2024 04 19.09219615 28 07.18 -05 01 36.5          20.2 GXEH043I93
     K24H00T KC2024 04 19.09607815 28 05.74 -05 00 49.1          20.2 GXEH043I93
     K24H00T KC2024 04 19.10573615 28 02.08 -04 58 52.2          20.1 GXEH043I93
     K24H00T |C2024 04 19.28247015 27 02.740-04 19 49.30         20.5 GVEH043807
     K24H00T |C2024 04 19.28688015 27 01.030-04 18 54.60         20.4 GVEH043807
     K24H00T |C2024 04 19.29121015 26 59.300-04 18 00.20         20.4 GVEH043807
     K24H00T  C2024 04 19.47790815 25 57.083-03 40 50.96         20.35GVEH043F52
     K24H00T  C2024 04 19.47873215 25 56.736-03 40 40.53         20.38GVEH043F52
     K24H00T |C2024 04 20.14050015 21 58.380-01 11 56.10         19.8 GVEH043807
     K24H00T |C2024 04 20.14459015 21 56.670-01 10 59.70         20.1 GVEH043807
     K24H00T |C2024 04 20.14855015 21 54.970-01 10 04.40         20.0 GVEH043807

Observer details:
807 Cerro Tololo Observatory, La Serena.  Observers T. Linder, R. Holmes.
    0.61-m f/6.8 Ritchey-Chretien + CCD.
F52 Pan-STARRS 2, Haleakala.  Observers J. Herman, T. Lowe, P. Minguez, A.
    Schultz, I. Smith.  Measurers K. Chambers, T. de Boer, J. Fairlamb, H.
    Gao, M. Huber, C.-C. Lin, E. Magnier, Y. Ramanjooloo, R. Wainscoat, R.
    Weryk.  1.8-m Ritchey-Chretien + CCD.
I93 St Pardon de Conques.  Observer F. Losse.  0.40-m f/3.7 reflector + CCD.

Orbital elements:
2024 HT                                                  Earth MOID = 0.0413 AU
Epoch 2024 Mar. 31.0 TT = JDT 2460400.5                 MPC                     
M 195.44649              (2000.0)            P               Q                  
n   1.37189447     Peri.  163.82475     +0.98465207     -0.15949973             
a   0.8021500      Node   205.67834     +0.13645816     +0.95666985             
e   0.3749055      Incl.    9.41083     +0.10880933     +0.24360344             
P   0.72           H   25.37          G   0.15           U   7                  
Residuals in seconds of arc
240418 F52  0.4-  0.2+    240419 I93  0.3+  0.1+    240419 F52  0.1+  0.0
240418 F52  0.1+  0.2-    240419 I93  0.0   0.5-    240419 F52  0.1-  0.0
240418 F52  0.1+  0.1-    240419 807  0.2-  0.0     240420 807  0.2-  0.0
240419 I93  0.1+  0.3+    240419 807  0.3+  0.2-    240420 807  0.2+  0.2-
240419 I93  0.1-  0.2-    240419 807  0.0   0.2+    240420 807  0.0   0.2+

Ephemeris:
2024 HT                  a,e,i = 0.80, 0.37, 9                   q = 0.5014
Date    TT    R. A. (2000) Decl.     Delta      r    Elong.  Phase     V
2024 03 21    16 04 15.4 -33 44 41   0.2165  1.1028   114.2    55.4    24.3
...
2024 04 05    16 04 40.9 -27 54 09   0.1322  1.0908   130.4    44.3    22.9
...
2024 04 13    15 51 55.8 -19 21 52   0.08983 1.0760   143.2    33.9    21.7
...
2024 04 19    15 28 39.1 -05 18 31   0.06245 1.0610   154.5    24.1    20.6
2024 04 20    15 22 46.2 -01 45 28   0.05863 1.0582   155.5    23.2    20.4
2024 04 21    15 16 04.1 +02 15 33   0.05513 1.0553   155.5    23.2    20.3
...
2024 04 27    14 08 32.6 +35 32 39   0.04437 1.0359   130.6    47.5    20.5
...
2024 05 05    10 26 01.1 +65 28 50   0.06220 1.0049    84.8    91.6    22.6
...
2024 05 20    06 28 22.6 +59 04 41   0.1301  0.9308    48.5   125.4    26.1

A. U. Tomatic                (C) Copyright 2024 MPC           M.P.E.C. 2024-H43





More information about the Iaude mailing list